Retour au catalogue

STARLINK-4756

ActifCommunicationsVLEO
NORAD 53826·PAYLOAD·🇺🇸 United States

Lancé Sep 19, 2022 depuis Cape Canaveral Space Force Station

Loading…

Prochains Passages (prochaines 24 heures)

TLE

FraisSource: CelesTrak SupGP

Époque: Sep 14, 2026, 22:24 UTC

1 53826C 22114J   26257.93381944 -.00029519  00000+0 -87271-3 0  2579
2 53826  53.1586 165.8166 0001125 102.3091   7.8876 15.34385774    16

Suivez STARLINK-4756 en temps réel avec AllMySat

Download on the App Store